Kalaeloa, HI

1:47 AM HST on June 27, 2017 (GMT -1000)
Kalaeloa (John Rodgers Field)

Weather History for PHJR - May, 2013

Change the Weather History Date:

Friday, May 3, 2013

  Actual Average (PHHI) Record (PHHI)
Temperature  
Mean Temperature 70 °F -  
Max Temperature 79 °F 76 °F 83 °F (2017)
Min Temperature 62 °F 63 °F 62 °F (2006)
Cooling Degree Days 6    
Growing Degree Days 20 (Base 50)    
Moisture  
Dew Point 65 °F    
Average Humidity 80    
Maximum Humidity 100    
Minimum Humidity 65    
Precipitation  
Precipitation 0.00 in - - ()
Sea Level Pressure  
Sea Level Pressure 30.06 in    
Wind  
Wind Speed 3 mph (WSW)    
Max Wind Speed 14 mph    
Max Gust Speed -    
Visibility 10 miles    
Events      
Averages and records for this station are not official NWS values.
T = Trace of Precipitation, MM = Missing Value Source: NWS Daily Summary

Daily Weather History Graph

Daily Weather History Graph

Search for Another Location

Airport or City:

Trip Planner

Search our weather history database for the weather conditions in past years. The results will help you decide how hot, cold, wet, or windy it might be!

Date:

Astronomy

May. 03, 2013 Rise Set
Actual Time 5:59 AM HST 6:58 PM HST
Civil Twilight 5:36 AM HST 7:21 PM HST
Nautical Twilight 5:08 AM HST 7:49 PM HST
Astronomical Twilight 4:40 AM HST 8:17 PM HST
Moon 1:45 AM HST (5/3) 1:47 PM HST (5/3)
Length of Visible Light 13h 45m
Length of Day
12h 58m
Waning Crescent, 34% of the Moon is Illuminated
May 3
Waning Crescent
May 9
New
May 17
First Quarter
May 24
Full
May 31
Last Quarter

Hourly Weather History & Observations

Time (HST) Temp. Dew Point Humidity Pressure Visibility Wind Dir Wind Speed Gust Speed Precip Events Conditions
12:53 AM 64.9 °F 63.0 °F 93% 30.10 in 10.0 mi Calm Calm - N/A   Clear
1:53 AM 66.0 °F 63.0 °F 90% 30.09 in 10.0 mi Calm Calm - N/A   Clear
2:39 AM 66.2 °F 62.6 °F 88% 30.05 in 10.0 mi Calm Calm - N/A   Partly Cloudy
2:53 AM 66.0 °F 63.0 °F 90% 30.07 in 10.0 mi Calm Calm - N/A   Partly Cloudy
3:53 AM 62.1 °F 62.1 °F 100% 30.06 in 10.0 mi Calm Calm - N/A   Clear
4:53 AM 62.1 °F 62.1 °F 100% 30.07 in 10.0 mi Calm Calm - N/A   Overcast
5:53 AM 63.0 °F 63.0 °F 100% 30.08 in 10.0 mi Calm Calm - N/A   Mostly Cloudy
6:03 AM 62.6 °F 62.6 °F 100% 30.06 in 10.0 mi Calm Calm - N/A   Mostly Cloudy
6:53 AM 64.9 °F 63.0 °F 93% 30.09 in 10.0 mi Calm Calm - N/A   Clear
7:53 AM 73.0 °F 64.9 °F 76% 30.11 in 10.0 mi Calm Calm - N/A   Clear
8:53 AM 75.9 °F 64.9 °F 69% 30.11 in 10.0 mi Variable 4.6 mph - N/A   Clear
9:53 AM 77.0 °F 66.0 °F 69% 30.10 in 10.0 mi SSE 8.1 mph - N/A   Clear
10:53 AM 78.1 °F 66.9 °F 68% 30.10 in 10.0 mi SSE 10.4 mph - N/A   Mostly Cloudy
11:53 AM 78.1 °F 68.0 °F 71% 30.08 in 10.0 mi SSE 8.1 mph - N/A   Partly Cloudy
12:53 PM 79.0 °F 66.9 °F 66% 30.06 in 10.0 mi South 6.9 mph - N/A   Clear
1:53 PM 77.0 °F 66.0 °F 69% 30.05 in 10.0 mi SSW 5.8 mph - N/A   Mostly Cloudy
2:53 PM 75.9 °F 64.9 °F 69% 30.04 in 10.0 mi SW 6.9 mph - N/A   Overcast
3:53 PM 75.9 °F 66.0 °F 71% 30.02 in 10.0 mi WNW 13.8 mph - N/A   Mostly Cloudy
4:09 PM 78.8 °F 66.2 °F 65% 30.00 in 10.0 mi West 11.5 mph - N/A   Mostly Cloudy
4:53 PM 75.9 °F 66.0 °F 71% 30.02 in 10.0 mi West 10.4 mph - N/A   Scattered Clouds
5:49 PM 75.2 °F 64.4 °F 69% 30.00 in 10.0 mi WSW 6.9 mph - N/A   Overcast
5:53 PM 75.9 °F 64.9 °F 69% 30.03 in 10.0 mi West 5.8 mph - N/A   Overcast
6:53 PM 73.9 °F 66.0 °F 76% 30.04 in 10.0 mi West 3.5 mph - N/A   Overcast
7:14 PM 73.4 °F 66.2 °F 78% 30.02 in 10.0 mi West 4.6 mph - N/A   Overcast
7:38 PM 73.4 °F 66.2 °F 78% 30.03 in 10.0 mi West 3.5 mph - N/A   Overcast
7:51 PM 73.4 °F 66.2 °F 78% 30.03 in 10.0 mi West 4.6 mph - N/A   Overcast
7:53 PM 73.9 °F 66.0 °F 76% 30.05 in 10.0 mi West 4.6 mph - N/A   Overcast
8:05 PM 73.4 °F 66.2 °F 78% 30.03 in 10.0 mi WNW 4.6 mph - N/A   Mostly Cloudy
8:53 PM 73.0 °F 66.0 °F 79% 30.06 in 10.0 mi Calm Calm - N/A   Scattered Clouds
9:53 PM 71.1 °F 66.0 °F 84% 30.07 in 10.0 mi Calm Calm - N/A   Mostly Cloudy
10:53 PM 69.1 °F 64.9 °F 87% 30.07 in 10.0 mi Calm Calm - N/A   Partly Cloudy
11:53 PM 66.9 °F 64.9 °F 93% 30.06 in 10.0 mi Calm Calm - N/A   Partly Cloudy